Temperature
7 7 7 7 7 7 7 7 7 7 7 7 7 7 7 7 7 7 7 6 6 6 6 6 5 5 5 4 4 4 3 3 3 3 3 3 3 3 3 3 3 3 3
7 7 7 7 7 7 7 7 7 7 7 7 7 6 6 6 6 6 6 6 6 5 5 5 5 4 4 4 4 3 3 3 2 2 2 2 2 2 2 2 2 2 2
6 6 6 6 6 6 7 6 6 6 6 6 6 6 6 6 6 5 5 5 5 5 5 4 4 4 4 3 3 3 3 2 2 2 2 2 2 2 2 2 2 2 2
5 5 5 5 6 6 6 6 6 6 6 6 6 5 5 5 5 5 5 4 4 4 4 4 4 4 3 3 3 2 2 2 2 2 2 2 2 1 1 1 1 1 1
4 4 5 5 5 5 5 5 5 5 5 5 5 5 5 4 4 4 4 4 4 4 4 4 3 3 3 2 2 2 2 2 1 1 1 1 1 1 1 1 1 1 1
4 4 4 4 4 4 4 4 4 4 4 4 4 4 4 4 4 4 3 3 3 3 3 3 3 3 2 2 2 1 1 1 1 1 1 1 1 0 0 0 -0 -0 -0
3 3 3 3 3 4 4 4 4 4 4 4 4 3 3 3 3 3 3 3 3 3 3 2 2 2 2 2 1 1 1 0 0 0 0 0 -0 -0 -0 -0 -1 -1 -1
2 2 3 3 3 3 3 3 3 3 3 3 3 3 3 3 3 2 2 2 2 2 2 2 2 1 1 1 1 1 0 0 0 -0 -0 -0 -1 -1 -1 -1 -1 -1 -1
2 2 2 2 2 2 2 2 2 2 2 2 2 2 2 2 2 2 2 2 2 2 1 1 1 1 1 0 0 0 0 0 -0 -0 -1 -1 -1 -1 -1 -1 -1 -1 -1
1 1 1 2 2 2 2 2 2 2 2 2 1 2 1 1 1 1 1 1 1 1 1 1 0 0 0 -0 -0 -0 -0 -0 -1 -1 -1 -1 -1 -1 -1 -2 -2 -2 -2
1 1 1 1 1 1 1 1 1 1 1 1 1 1 1 1 1 1 1 1 1 0 0 -0 -0 -0 -0 -1 -1 -1 -1 -1 -1 -1 -1 -2 -2 -2 -2 -2 -2 -2 -2
1 1 1 1 1 0 0 0 0 0 0 0 0 0 0 0 0 0 0 0 -0 -0 -0 -1 -1 -1 -1 -1 -1 -1 -1 -2 -2 -2 -2 -2 -2 -2 -2 -2 -2 -2 -3
0 0 0 0 0 -0 -0 -0 -0 -0 -0 -0 -0 -0 -0 -0 -0 -0 -0 -1 -1 -1 -1 -1 -1 -1 -1 -1 -2 -2 -2 -2 -2 -2 -3 -3 -3 -3 -3 -3 -3 -3 -3
-0 -0 -0 -1 -1 -1 -1 -1 -1 -1 -0 -1 -1 -1 -1 -1 -1 -1 -1 -1 -1 -1 -1 -2 -2 -2 -2 -2 -2 -2 -2 -3 -3 -3 -3 -3 -3 -3 -3 -3 -3 -3 -3
-1 -1 -1 -1 -1 -1 -1 -1 -1 -1 -1 -1 -1 -1 -1 -1 -1 -1 -2 -2 -2 -2 -2 -2 -2 -2 -2 -2 -2 -3 -3 -3 -3 -3 -4 -4 -4 -3 -3 -3 -3 -4 -4
-2 -2 -2 -2 -2 -2 -2 -2 -2 -2 -2 -2 -1 -2 -2 -2 -2 -2 -2 -2 -2 -2 -2 -2 -2 -3 -3 -3 -3 -3 -3 -3 -4 -4 -4 -4 -4 -4 -4 -4 -4 -4 -4
-2 -2 -2 -2 -3 -2 -2 -2 -2 -2 -3 -2 -2 -2 -2 -2 -2 -3 -3 -3 -3 -3 -3 -3 -3 -3 -3 -3 -4 -4 -4 -4 -4 -4 -4 -4 -4 -4 -4 -4 -4 -4 -4
-3 -3 -3 -3 -3 -3 -3 -3 -3 -3 -3 -3 -3 -3 -3 -3 -3 -3 -3 -3 -3 -3 -3 -3 -4 -4 -4 -4 -4 -4 -4 -4 -4 -4 -4 -4 -5 -5 -4 -5 -5 -5 -5
-4 -4 -4 -4 -4 -3 -3 -3 -3 -3 -3 -3 -3 -3 -3 -3 -3 -3 -4 -4 -4 -4 -4 -4 -4 -4 -4 -4 -4 -5 -5 -5 -5 -5 -5 -5 -5 -5 -5 -5 -5 -5 -5
-4 -4 -4 -4 -4 -4 -4 -4 -4 -4 -4 -4 -4 -4 -4 -4 -4 -4 -4 -4 -4 -4 -4 -4 -4 -5 -5 -5 -5 -5 -5 -5 -5 -5 -5 -5 -5 -5 -5 -5 -5 -6 -6
-4 -4 -4 -4 -4 -4 -4 -4 -4 -4 -4 -4 -4 -4 -4 -4 -4 -4 -4 -5 -5 -5 -5 -5 -5 -5 -5 -5 -5 -5 -5 -5 -5 -5 -5 -5 -5 -5 -5 -6 -6 -6 -6
-5 -5 -5 -5 -5 -5 -5 -5 -5 -5 -5 -5 -5 -5 -5 -5 -5 -5 -5 -5 -5 -5 -5 -5 -5 -5 -5 -5 -5 -6 -6 -6 -6 -6 -6 -6 -6 -6 -6 -6 -6 -6 -6
-5 -5 -5 -5 -5 -5 -5 -5 -5 -5 -5 -5 -5 -5 -5 -5 -5 -5 -5 -5 -5 -6 -6 -6 -6 -6 -6 -6 -6 -6 -6 -6 -6 -6 -6 -6 -6 -6 -6 -6 -6 -6 -6
-5 -5 -5 -5 -5 -5 -5 -5 -5 -5 -5 -5 -5 -5 -5 -6 -6 -6 -6 -6 -6 -6 -6 -6 -6 -6 -6 -6 -6 -6 -6 -6 -6 -6 -6 -6 -6 -6 -6 -6 -6 -6 -6
-6 -6 -6 -6 -6 -6 -6 -6 -6 -6 -6 -6 -6 -6 -6 -6 -6 -6 -6 -6 -6 -6 -6 -6 -6 -6 -6 -6 -6 -6 -6 -6 -6 -6 -6 -6 -6 -6 -6 -6 -6 -6 -6
-6 -6 -6 -6 -6 -6 -6 -6 -6 -6 -6 -6 -6 -6 -6 -6 -6 -6 -6 -6 -6 -6 -6 -6 -6 -6 -6 -6 -6 -6 -6 -6 -6 -6 -6 -6 -6 -6 -6 -6 -6 -6 -6
Wind_Speed
3 3 3 3 3 3 3 3 4 4 5 4 4 4 3 3 3 3 2 2 2 1 1 1 1 1 1 2 2 1 2 2 5 5 4 4 4 5 8 9 10 10 10
3 3 3 3 3 3 3 3 4 4 4 4 4 4 3 3 3 3 3 2 2 2 1 1 1 1 2 2 2 2 3 3 4 7 6 5 5 5 5 6 8 10 10
3 3 2 3 3 3 2 2 3 3 3 3 4 3 3 3 3 3 2 2 2 2 1 2 2 2 2 2 3 3 3 3 3 5 6 5 5 5 5 6 6 6 9
3 3 2 2 2 2 2 2 3 3 3 3 3 3 3 3 3 3 3 2 2 2 2 2 2 3 3 3 3 4 3 3 3 4 5 5 5 4 4 5 6 5 6
2 2 2 1 2 2 2 3 3 3 3 3 3 2 2 2 2 2 3 2 2 2 2 2 2 3 3 3 3 3 3 3 4 4 5 6 5 5 5 4 6 7 6
2 1 1 1 2 2 2 2 3 3 3 3 3 3 2 2 2 2 1 2 2 2 2 2 2 3 3 4 5 5 5 4 5 5 5 6 7 6 5 5 6 6 6
1 1 1 1 1 2 2 2 3 3 3 3 2 2 2 2 2 2 2 1 2 2 2 2 2 3 3 3 4 6 6 7 7 5 6 7 7 6 6 7 6 6 7
1 1 1 1 1 1 2 3 2 2 2 2 2 2 2 2 2 2 2 1 1 1 1 2 2 2 3 3 3 3 4 4 6 5 5 6 6 5 5 6 6 6 6
0 1 1 1 2 2 2 2 2 2 2 2 2 2 2 2 2 1 1 1 1 0 1 1 2 2 4 5 3 4 5 5 6 7 8 8 9 9 7 4 4 5 6
1 1 1 1 2 2 2 2 2 2 2 2 2 2 2 2 1 1 1 1 1 0 1 1 3 4 5 6 4 4 5 6 5 6 6 7 7 7 8 4 3 4 5
1 0 0 1 1 2 2 1 2 2 2 2 2 1 2 2 1 1 1 1 1 1 1 1 2 5 6 7 6 4 6 6 4 4 5 5 5 5 6 6 5 4 5
1 0 1 1 1 1 2 1 1 2 2 2 2 1 1 1 1 1 1 2 1 1 1 2 2 5 6 6 5 5 6 6 3 4 4 4 5 5 5 7 7 7 6
1 1 1 1 1 1 2 2 2 2 2 1 1 1 1 0 0 1 2 2 2 1 1 3 4 5 5 4 5 6 6 3 3 4 4 5 5 5 6 6 7 7 8
2 1 1 2 2 2 1 1 2 2 2 1 1 1 1 0 0 0 1 1 1 1 1 2 3 3 4 4 4 4 3 3 3 4 4 4 4 4 5 5 5 5 5
1 1 1 1 2 2 1 1 1 1 2 2 2 2 2 1 1 2 1 1 1 1 1 1 1 2 2 3 3 3 3 3 4 4 4 5 5 5 5 5 4 5 5
1 1 1 1 1 2 2 2 3 1 1 1 1 1 1 1 2 2 2 2 2 1 1 1 1 1 2 2 3 3 3 4 4 4 4 4 5 5 6 5 4 5 5
1 1 1 1 1 1 1 2 1 2 3 2 1 0 1 1 1 1 1 1 1 1 1 1 1 1 2 3 3 3 4 4 4 4 4 5 5 5 5 5 5 5 5
1 1 1 1 1 1 1 1 1 1 1 1 1 1 1 1 1 1 1 1 1 1 1 1 1 1 2 2 3 3 4 4 4 4 4 5 5 5 5 5 5 5 5
1 1 1 1 1 1 1 1 1 1 1 0 1 1 1 1 1 1 0 1 0 1 1 1 1 1 2 2 3 3 4 4 4 4 4 5 5 5 5 5 5 7 6
1 1 1 1 1 1 1 1 1 1 1 1 1 1 1 1 1 1 1 1 0 0 1 1 1 1 2 2 3 3 3 4 4 4 5 5 5 4 5 5 5 5 5
1 1 1 1 1 1 1 1 1 1 0 0 0 1 1 1 1 1 1 1 0 0 1 1 1 2 2 2 2 3 3 4 4 4 4 4 5 5 4 5 5 5 5
1 0 0 1 1 1 1 1 1 1 0 0 0 1 1 1 1 1 1 1 1 1 1 1 1 2 2 2 2 2 3 4 4 4 4 4 4 4 4 4 4 5 5
1 1 0 0 0 0 1 1 0 0 0 0 0 0 1 0 0 0 1 0 1 1 2 2 2 2 3 3 3 3 3 3 4 5 4 4 4 4 4 4 5 5 5
1 1 1 0 0 0 0 0 0 0 0 0 0 0 0 0 0 0 0 0 1 1 2 2 2 2 4 4 5 5 5 6 6 5 5 4 4 4 4 4 4 5 4
1 1 1 1 0 0 0 0 0 0 1 1 0 0 0 0 0 0 0 1 1 1 2 3 3 3 4 5 5 6 7 7 7 6 5 4 4 4 4 4 4 4 4
1 1 1 1 1 1 1 1 1 1 1 1 1 0 0 1 1 1 1 1 1 2 2 3 3 4 5 5 6 7 7 8 8 7 5 3 3 3 3 3 4 4 4
Wind_Direction
123 121 125 136 140 147 153 157 152 146 148 155 156 160 164 167 163 170 173 178 183 207 222 223 292 330 323 322 303 274 266 261 279 295 300 307 313 315 321 318 315 313 311
141 136 142 146 145 147 152 152 147 150 150 152 155 163 171 174 175 182 187 191 190 203 219 222 259 299 299 300 301 274 269 269 273 292 301 307 304 301 305 308 313 315 312
141 142 140 145 147 152 151 153 151 153 154 154 158 171 179 182 184 190 193 203 202 202 211 222 243 254 271 280 290 281 272 280 275 282 293 299 299 305 308 305 304 309 309
141 145 153 162 165 163 158 156 150 147 154 160 165 172 177 179 181 181 190 195 195 215 224 226 239 244 248 265 275 280 282 284 286 288 292 297 299 301 305 308 309 306 305
138 149 163 164 167 163 163 162 152 153 161 163 162 166 170 180 183 182 187 195 189 211 243 250 253 267 273 275 282 285 287 286 291 292 294 302 304 308 304 302 304 310 303
137 152 151 155 161 158 165 162 148 149 152 152 163 168 180 200 201 212 223 197 192 209 244 265 278 274 285 294 300 302 303 291 286 286 291 292 296 299 299 302 306 313 306
135 152 162 164 169 174 172 151 153 161 154 149 155 159 176 189 201 221 246 229 203 207 231 257 285 295 303 299 302 309 309 302 293 287 288 288 293 295 297 298 298 297 290
150 170 194 184 187 185 175 162 156 161 158 159 165 171 170 187 197 228 261 233 210 216 241 252 272 285 298 305 301 304 301 305 304 300 282 286 294 294 284 284 288 297 291
193 204 206 185 184 190 177 160 151 153 158 165 165 171 175 185 212 239 271 193 196 241 307 324 302 292 303 315 315 307 311 312 319 312 310 309 309 308 312 308 309 310 305
261 228 209 198 190 186 172 157 152 158 167 168 171 175 168 173 205 241 247 184 182 285 320 322 314 316 317 323 318 307 305 309 316 324 327 325 328 329 327 319 295 295 301
341 2 175 207 200 170 157 154 156 153 148 161 166 162 165 170 178 239 258 210 208 243 286 305 304 312 315 318 319 306 302 315 318 317 319 323 331 334 335 333 320 289 287
27 95 163 187 175 150 144 148 152 152 151 160 158 158 164 165 172 261 284 278 288 249 276 286 293 306 314 320 324 323 327 332 326 324 324 325 324 322 321 325 322 314 294
94 122 151 138 139 150 148 150 147 147 156 182 180 181 169 127 81 340 320 314 305 292 282 294 306 317 330 335 338 340 343 338 329 325 320 316 314 314 322 325 326 323 315
112 117 123 123 127 117 124 138 151 169 169 182 191 186 171 147 120 36 342 330 333 326 315 308 320 339 354 353 351 351 352 341 334 321 314 313 318 320 319 318 318 322 318
89 97 102 113 119 106 99 119 168 211 202 192 196 193 188 212 269 296 303 283 290 282 325 340 358 3 5 356 349 346 346 342 334 327 323 324 324 323 321 323 319 320 316
86 79 87 105 106 116 112 73 55 71 67 97 176 203 233 241 273 301 306 310 324 346 36 33 6 354 343 335 333 335 337 335 330 326 326 326 325 324 324 326 327 326 321
95 78 92 95 103 117 121 121 98 50 44 48 68 345 242 235 280 291 296 326 337 42 61 38 2 346 340 337 334 332 330 327 328 328 329 329 326 323 324 326 330 330 324
73 72 82 97 108 108 111 134 152 145 77 29 40 30 338 295 281 273 277 32 25 34 39 17 336 334 332 329 329 329 328 329 332 332 329 327 325 324 325 328 329 327 324
79 88 87 84 82 88 92 103 113 110 115 84 36 22 359 337 313 299 51 88 80 6 3 355 341 337 332 326 323 323 325 326 329 329 326 325 325 325 325 326 326 327 327
60 68 70 85 81 77 81 97 100 103 100 79 34 353 0 27 36 22 34 65 71 346 339 339 337 334 324 320 321 322 327 328 330 329 324 324 325 324 324 324 325 327 326
72 74 56 60 68 64 70 98 114 117 116 87 352 314 352 53 54 33 28 26 13 336 324 326 323 319 319 320 322 324 327 325 327 329 329 327 327 327 326 324 324 325 327
111 93 47 51 53 54 53 72 97 106 154 162 298 345 2 32 50 36 21 3 5 353 352 340 320 316 317 319 320 316 317 320 326 329 328 327 327 327 326 324 327 329 331
127 125 86 50 59 115 39 48 71 87 120 124 301 331 351 24 9 357 349 340 338 338 346 344 327 327 335 332 326 317 309 311 318 322 323 324 327 329 325 324 326 328 331
155 162 169 170 113 105 93 46 49 52 202 244 275 292 309 281 291 304 310 323 326 331 335 333 325 320 322 330 330 325 319 318 320 318 316 315 319 321 321 322 324 326 331
159 172 186 179 173 168 158 191 240 254 264 266 269 294 322 308 285 279 296 311 319 325 326 326 323 320 318 318 320 319 318 320 324 326 319 315 315 316 319 324 326 326 330
171 186 192 189 189 193 198 213 231 239 252 261 268 273 274 273 269 267 282 286 299 311 317 321 320 320 320 320 317 318 321 323 326 331 334 325 321 324 328 327 325 326 328
Height
1489 1491 1493 1496 1498 1501 1503 1505 1507 1508 1510 1511 1513 1514 1514 1515 1516 1516 1517 1516 1516 1517 1516 1516 1515 1515 1514 1514 1512 1511 1511 1510 1507 1503 1502 1501 1499 1497 1495 1493 1491 1488 1485
1487 1489 1491 1493 1495 1498 1499 1502 1504 1505 1507 1508 1509 1510 1511 1512 1512 1513 1513 1513 1513 1513 1513 1512 1512 1511 1511 1510 1509 1508 1507 1506 1504 1500 1498 1496 1494 1493 1490 1488 1486 1484 1481
1485 1487 1488 1490 1492 1494 1496 1498 1500 1502 1503 1505 1506 1507 1507 1508 1508 1509 1509 1509 1509 1510 1510 1509 1508 1508 1507 1506 1506 1504 1503 1502 1500 1497 1494 1492 1490 1489 1486 1484 1482 1479 1477
1482 1483 1485 1487 1489 1491 1493 1494 1496 1498 1500 1501 1502 1503 1504 1504 1505 1505 1505 1506 1506 1506 1506 1505 1505 1504 1503 1502 1502 1501 1499 1497 1496 1494 1491 1488 1486 1484 1482 1479 1476 1474 1472
1479 1480 1482 1484 1486 1488 1489 1491 1492 1494 1496 1497 1498 1499 1500 1500 1501 1501 1502 1502 1502 1502 1502 1502 1501 1500 1500 1499 1498 1497 1495 1493 1492 1490 1487 1484 1482 1480 1478 1475 1472 1469 1466
1476 1477 1479 1481 1482 1484 1485 1487 1488 1490 1492 1493 1494 1495 1496 1496 1497 1497 1498 1498 1498 1498 1498 1497 1497 1497 1496 1495 1495 1493 1492 1490 1488 1486 1484 1481 1478 1477 1474 1472 1469 1465 1461
1473 1474 1475 1477 1479 1480 1482 1483 1485 1486 1488 1489 1490 1491 1492 1492 1493 1494 1494 1494 1494 1494 1494 1493 1493 1493 1493 1491 1490 1489 1488 1487 1486 1484 1480 1478 1475 1473 1471 1468 1465 1462 1459
1469 1470 1472 1474 1475 1477 1478 1480 1481 1482 1484 1485 1486 1487 1488 1489 1490 1490 1490 1490 1490 1490 1490 1490 1490 1489 1489 1488 1487 1485 1484 1482 1481 1479 1477 1474 1472 1469 1467 1465 1462 1459 1456
1466 1467 1469 1470 1472 1473 1474 1475 1477 1479 1480 1482 1483 1484 1485 1485 1486 1487 1487 1486 1486 1486 1486 1486 1486 1486 1485 1485 1483 1481 1480 1478 1476 1475 1472 1470 1467 1465 1463 1461 1458 1455 1450
1463 1464 1466 1467 1468 1470 1471 1472 1474 1475 1477 1478 1479 1481 1481 1482 1483 1483 1483 1483 1483 1482 1483 1483 1483 1482 1482 1481 1480 1478 1476 1474 1472 1470 1468 1465 1463 1460 1459 1457 1454 1452 1448
1460 1461 1462 1464 1465 1467 1468 1469 1471 1472 1473 1475 1476 1477 1478 1479 1479 1480 1480 1480 1479 1479 1479 1479 1479 1479 1478 1478 1476 1475 1473 1471 1469 1466 1464 1461 1459 1457 1455 1453 1451 1449 1446
1457 1458 1460 1461 1463 1464 1465 1466 1468 1469 1470 1472 1473 1474 1475 1476 1476 1476 1477 1477 1477 1476 1476 1476 1476 1476 1475 1475 1473 1472 1470 1468 1466 1463 1461 1458 1456 1454 1452 1450 1448 1446 1443
1455 1456 1457 1459 1460 1461 1462 1463 1464 1466 1467 1468 1469 1470 1471 1472 1473 1473 1474 1474 1474 1474 1473 1474 1473 1473 1472 1471 1470 1469 1467 1465 1463 1460 1458 1456 1454 1452 1449 1447 1444 1442 1440
1453 1454 1455 1456 1457 1458 1459 1460 1461 1462 1464 1465 1466 1467 1468 1469 1470 1470 1471 1471 1471 1471 1471 1471 1471 1470 1469 1468 1467 1466 1464 1462 1460 1458 1456 1454 1452 1449 1447 1444 1441 1439 1436
1451 1452 1453 1454 1454 1455 1457 1458 1459 1460 1461 1462 1463 1464 1465 1466 1467 1468 1468 1468 1468 1468 1468 1468 1468 1467 1466 1465 1465 1463 1462 1460 1458 1456 1453 1451 1449 1446 1444 1441 1439 1436 1434
1449 1450 1451 1452 1452 1453 1454 1455 1457 1458 1459 1460 1461 1462 1463 1464 1464 1465 1466 1466 1466 1466 1466 1465 1465 1464 1464 1463 1462 1460 1459 1457 1455 1453 1451 1449 1447 1444 1442 1439 1437 1434 1432
1448 1448 1449 1450 1451 1452 1452 1453 1454 1456 1457 1458 1459 1459 1460 1460 1461 1462 1463 1463 1463 1464 1463 1463 1463 1462 1461 1460 1459 1458 1456 1455 1453 1451 1449 1447 1445 1443 1440 1438 1435 1433 1430
1447 1447 1448 1448 1449 1450 1451 1452 1452 1453 1454 1455 1456 1457 1457 1458 1459 1459 1460 1461 1461 1461 1461 1461 1460 1460 1459 1458 1457 1456 1454 1453 1451 1449 1448 1446 1444 1441 1439 1436 1434 1431 1429
1446 1446 1447 1447 1448 1449 1449 1450 1451 1452 1452 1453 1453 1454 1455 1456 1456 1457 1457 1458 1458 1458 1458 1458 1458 1458 1457 1456 1455 1454 1453 1451 1449 1448 1446 1444 1442 1440 1437 1435 1433 1430 1428
1445 1445 1446 1446 1447 1447 1448 1449 1449 1450 1451 1451 1451 1452 1453 1453 1453 1454 1455 1455 1456 1456 1456 1456 1456 1455 1455 1454 1453 1452 1451 1449 1448 1446 1444 1443 1441 1439 1436 1434 1432 1429 1427
1444 1444 1445 1445 1446 1446 1447 1447 1448 1448 1449 1449 1450 1451 1451 1452 1452 1452 1453 1453 1454 1453 1454 1454 1453 1453 1452 1452 1451 1450 1449 1447 1446 1444 1443 1441 1439 1437 1435 1433 1431 1429 1426
1444 1444 1444 1445 1445 1446 1446 1446 1447 1447 1447 1448 1448 1449 1449 1450 1450 1451 1451 1451 1451 1452 1452 1451 1451 1451 1450 1449 1449 1448 1447 1446 1444 1443 1441 1440 1438 1436 1434 1432 1430 1428 1426
1443 1443 1444 1444 1444 1445 1445 1445 1445 1446 1446 1446 1447 1447 1447 1448 1448 1449 1449 1449 1449 1449 1449 1449 1449 1448 1448 1447 1447 1446 1445 1444 1443 1441 1440 1438 1436 1435 1433 1431 1429 1427 1425
1441 1442 1442 1442 1443 1443 1443 1444 1444 1444 1445 1445 1445 1446 1446 1446 1447 1447 1447 1447 1447 1447 1447 1447 1447 1446 1446 1445 1445 1444 1443 1442 1441 1440 1438 1437 1435 1434 1432 1431 1429 1427 1425
1440 1440 1441 1441 1442 1442 1442 1442 1443 1443 1443 1444 1444 1444 1445 1445 1445 1445 1445 1445 1445 1445 1445 1445 1445 1444 1444 1443 1443 1442 1441 1440 1439 1438 1437 1436 1434 1433 1432 1430 1429 1427 1425
1438 1439 1439 1440 1440 1440 1441 1441 1441 1442 1442 1442 1443 1443 1443 1443 1443 1443 1443 1443 1443 1443 1443 1443 1443 1442 1442 1441 1441 1440 1439 1439 1438 1437 1436 1435 1433 1432 1431 1430 1428 1426 1425